N125HM KSTL-KMCO

Flight info

Callsign N125HM
Flight time 1h 43m
Altitude 39000
Route DRUSE5 BNA THRSR ZJAYX GRNCH5
Aircraft C750/M-SBDE3FGHRWXY/L

Departure

Time 2026-04-22 19:01
Airport St. Louis Lambert International Airport (KSTL)

Arrival

Time 2026-04-22 20:44
Airport Orlando International Airport (KMCO)
Time Latitude Longitude Altitude Speed Heading
2026-04-22 18:43 38.74667 -90.34947 560 ft 0 kts 118°
2026-04-22 18:57 38.74643 -90.34919 562 ft 22 kts 147°
2026-04-22 18:57 38.74530 -90.34833 567 ft 13 kts 198°
2026-04-22 18:57 38.74461 -90.34842 567 ft 11 kts 124°
2026-04-22 18:58 38.74406 -90.34734 573 ft 17 kts 123°
2026-04-22 18:58 38.74328 -90.34642 578 ft 14 kts 197°
2026-04-22 18:58 38.74215 -90.34729 573 ft 21 kts 214°
2026-04-22 18:58 38.74069 -90.34773 567 ft 22 kts 131°
2026-04-22 18:59 38.73992 -90.34626 577 ft 16 kts 121°
2026-04-22 18:59 38.73943 -90.34555 583 ft 5 kts 174°
2026-04-22 18:59 38.73883 -90.34579 582 ft 12 kts 217°
2026-04-22 18:59 38.73864 -90.34597 581 ft 2 kts 214°
2026-04-22 19:00 38.73814 -90.34680 576 ft 19 kts 271°
2026-04-22 19:00 38.73958 -90.34998 555 ft 87 kts 302°
2026-04-22 19:00 38.74449 -90.35994 633 ft 155 kts 302°
2026-04-22 19:00 38.75146 -90.37320 973 ft 202 kts 301°
2026-04-22 19:01 38.76001 -90.39041 1831 ft 237 kts 298°
2026-04-22 19:01 38.76847 -90.40813 3124 ft 232 kts 299°
2026-04-22 19:01 38.77686 -90.42564 4132 ft 238 kts 299°
2026-04-22 19:01 38.78392 -90.44527 4950 ft 250 kts 277°
2026-04-22 19:02 38.78100 -90.46738 5715 ft 261 kts 242°
2026-04-22 19:02 38.76929 -90.48605 6570 ft 269 kts 232°
2026-04-22 19:02 38.75845 -90.50532 7217 ft 271 kts 236°
2026-04-22 19:02 38.74404 -90.52195 7889 ft 282 kts 207°
2026-04-22 19:03 38.72523 -90.53046 8441 ft 285 kts 200°
2026-04-22 19:03 38.70611 -90.53905 8938 ft 291 kts 199°
2026-04-22 19:03 38.68568 -90.54127 9400 ft 298 kts 169°
2026-04-22 19:03 38.66696 -90.52969 9905 ft 303 kts 141°
2026-04-22 19:04 38.64952 -90.51314 10709 ft 318 kts 145°
2026-04-22 19:04 38.63088 -90.49646 11455 ft 332 kts 144°
2026-04-22 19:04 38.61147 -90.47918 12382 ft 337 kts 143°
2026-04-22 19:04 38.59222 -90.46202 13183 ft 342 kts 143°
2026-04-22 19:05 38.57224 -90.44421 13952 ft 347 kts 143°
2026-04-22 19:05 38.55217 -90.42627 14739 ft 351 kts 143°
2026-04-22 19:05 38.53516 -90.40385 15433 ft 350 kts 118°
2026-04-22 19:05 38.52637 -90.37530 16136 ft 350 kts 106°
2026-04-22 19:06 38.51769 -90.34557 16829 ft 355 kts 108°
2026-04-22 19:06 38.50900 -90.31535 17515 ft 360 kts 108°
2026-04-22 19:06 38.50019 -90.28517 18185 ft 364 kts 108°
2026-04-22 19:07 38.48215 -90.22343 19466 ft 372 kts 108°
2026-04-22 19:07 38.47301 -90.19218 20082 ft 376 kts 108°
2026-04-22 19:07 38.46373 -90.16048 20695 ft 380 kts 108°
2026-04-22 19:07 38.45438 -90.12854 21287 ft 384 kts 108°
2026-04-22 19:08 38.44501 -90.09667 21863 ft 387 kts 108°
2026-04-22 19:08 38.43536 -90.06379 22408 ft 392 kts 108°
2026-04-22 19:08 38.42575 -90.03114 22940 ft 396 kts 108°
2026-04-22 19:08 38.41586 -89.99750 23470 ft 400 kts 108°
2026-04-22 19:09 38.40593 -89.96382 24012 ft 404 kts 108°
2026-04-22 19:09 38.39594 -89.93004 24497 ft 409 kts 108°
2026-04-22 19:09 38.38578 -89.89571 24995 ft 412 kts 107°
2026-04-22 19:09 38.37545 -89.86079 25504 ft 416 kts 107°
2026-04-22 19:10 38.36515 -89.82604 25980 ft 419 kts 107°
2026-04-22 19:10 38.35444 -89.78999 26458 ft 423 kts 107°
2026-04-22 19:10 38.34384 -89.75429 26923 ft 426 kts 107°
2026-04-22 19:10 38.33290 -89.71819 27350 ft 431 kts 110°
2026-04-22 19:11 38.31606 -89.68583 27774 ft 440 kts 129°
2026-04-22 19:11 38.29487 -89.65556 28250 ft 443 kts 129°
2026-04-22 19:11 38.27416 -89.62582 28670 ft 446 kts 129°
2026-04-22 19:11 38.25299 -89.59541 29063 ft 450 kts 129°
2026-04-22 19:12 38.23215 -89.56538 29468 ft 453 kts 129°
2026-04-22 19:12 38.21080 -89.53470 29893 ft 455 kts 129°
2026-04-22 19:12 38.18964 -89.50431 30298 ft 458 kts 129°
2026-04-22 19:12 38.16843 -89.47387 30713 ft 460 kts 129°
2026-04-22 19:13 38.14696 -89.44311 31096 ft 463 kts 129°
2026-04-22 19:13 38.12545 -89.41228 31500 ft 465 kts 129°
2026-04-22 19:13 38.10366 -89.38111 31875 ft 467 kts 129°
2026-04-22 19:13 38.08181 -89.34988 32286 ft 469 kts 130°
2026-04-22 19:14 38.05990 -89.31859 32645 ft 471 kts 130°
2026-04-22 19:14 38.03774 -89.28697 32983 ft 474 kts 130°
2026-04-22 19:14 38.01553 -89.25534 33348 ft 475 kts 130°
2026-04-22 19:14 37.99354 -89.22401 33660 ft 478 kts 130°
2026-04-22 19:15 37.97847 -89.20255 33925 ft 479 kts 130°
2026-04-22 19:15 37.94855 -89.16003 34383 ft 483 kts 130°
2026-04-22 19:15 37.92607 -89.12815 34842 ft 483 kts 130°
2026-04-22 19:15 37.90336 -89.09593 35377 ft 484 kts 130°
2026-04-22 19:16 37.88095 -89.06422 36069 ft 481 kts 130°
2026-04-22 19:16 37.85836 -89.03225 36721 ft 479 kts 130°
2026-04-22 19:16 37.83623 -89.00095 37325 ft 478 kts 130°
2026-04-22 19:16 37.81393 -88.96946 37868 ft 478 kts 129°
2026-04-22 19:17 37.79183 -88.93829 38414 ft 478 kts 129°
2026-04-22 19:17 37.76915 -88.90632 38649 ft 483 kts 129°
2026-04-22 19:17 37.74656 -88.87452 38879 ft 486 kts 129°
2026-04-22 19:17 37.72362 -88.84227 39094 ft 491 kts 129°
2026-04-22 19:18 37.70019 -88.80932 39098 ft 499 kts 129°
2026-04-22 19:18 37.65281 -88.74287 39108 ft 513 kts 129°
2026-04-22 19:19 37.60438 -88.67507 39111 ft 526 kts 129°
2026-04-22 19:19 37.55455 -88.60545 39108 ft 538 kts 129°
2026-04-22 19:20 37.50383 -88.53477 39103 ft 545 kts 129°
2026-04-22 19:20 37.45241 -88.46322 39110 ft 548 kts 129°
2026-04-22 19:21 37.40075 -88.39150 39114 ft 548 kts 129°
2026-04-22 19:21 37.34904 -88.31986 39116 ft 548 kts 130°
2026-04-22 19:22 37.29736 -88.24847 39102 ft 548 kts 130°
2026-04-22 19:22 37.24581 -88.17741 39116 ft 548 kts 130°
2026-04-22 19:23 37.19407 -88.10621 39115 ft 548 kts 130°
2026-04-22 19:23 37.14184 -88.03451 39126 ft 548 kts 130°
2026-04-22 19:24 37.09016 -87.96371 39126 ft 548 kts 130°
2026-04-22 19:24 37.03832 -87.89286 39127 ft 548 kts 130°
2026-04-22 19:25 36.98669 -87.82245 39132 ft 548 kts 130°
2026-04-22 19:25 36.93507 -87.75217 39129 ft 548 kts 130°
2026-04-22 19:26 36.88314 -87.68164 39128 ft 548 kts 130°
2026-04-22 19:26 36.83132 -87.61144 39136 ft 547 kts 130°
2026-04-22 19:27 36.77902 -87.54072 39149 ft 547 kts 130°
2026-04-22 19:27 36.72707 -87.47065 39145 ft 547 kts 130°
2026-04-22 19:28 36.67504 -87.40055 39154 ft 547 kts 130°
2026-04-22 19:28 36.62316 -87.33086 39148 ft 548 kts 130°
2026-04-22 19:29 36.57075 -87.26063 39150 ft 547 kts 130°
2026-04-22 19:29 36.51865 -87.19093 39143 ft 547 kts 130°
2026-04-22 19:30 36.47487 -87.13250 39142 ft 547 kts 130°
2026-04-22 19:30 36.41434 -87.05187 39149 ft 547 kts 130°
2026-04-22 19:31 36.36194 -86.98220 39155 ft 547 kts 130°
2026-04-22 19:31 36.30969 -86.91290 39164 ft 548 kts 130°
2026-04-22 19:32 36.25710 -86.84331 39166 ft 547 kts 130°
2026-04-22 19:32 36.20498 -86.77450 39174 ft 547 kts 130°
2026-04-22 19:33 36.15211 -86.70480 39175 ft 547 kts 130°
2026-04-22 19:33 36.09323 -86.64405 39166 ft 551 kts 140°
2026-04-22 19:34 36.03154 -86.58663 39183 ft 550 kts 141°
2026-04-22 19:34 35.96970 -86.52921 39175 ft 551 kts 141°
2026-04-22 19:35 35.90812 -86.47214 39179 ft 550 kts 141°
2026-04-22 19:35 35.84656 -86.41519 39172 ft 550 kts 140°
2026-04-22 19:36 35.78519 -86.35849 39174 ft 549 kts 141°
2026-04-22 19:36 35.72343 -86.30158 39178 ft 549 kts 141°
2026-04-22 19:37 35.66210 -86.24521 39172 ft 550 kts 141°
2026-04-22 19:37 35.60051 -86.18866 39171 ft 549 kts 141°
2026-04-22 19:38 35.53870 -86.13204 39179 ft 549 kts 141°
2026-04-22 19:38 35.47685 -86.07548 39180 ft 550 kts 141°
2026-04-22 19:39 35.41517 -86.01920 39183 ft 550 kts 141°
2026-04-22 19:39 35.35323 -85.96280 39188 ft 549 kts 141°
2026-04-22 19:40 35.29133 -85.90652 39193 ft 549 kts 141°
2026-04-22 19:40 35.22990 -85.85079 39199 ft 548 kts 141°
2026-04-22 19:41 35.16795 -85.79470 39196 ft 548 kts 141°
2026-04-22 19:41 35.10617 -85.73889 39193 ft 548 kts 141°
2026-04-22 19:42 35.04457 -85.68330 39192 ft 548 kts 141°
2026-04-22 19:42 34.98300 -85.62788 39189 ft 548 kts 141°
2026-04-22 19:43 34.89131 -85.54557 39188 ft 546 kts 141°
2026-04-22 19:43 34.82937 -85.49006 39177 ft 546 kts 141°
2026-04-22 19:44 34.76794 -85.43514 39174 ft 545 kts 141°
2026-04-22 19:44 34.70608 -85.37992 39175 ft 545 kts 142°
2026-04-22 19:45 34.64468 -85.32522 39169 ft 545 kts 142°
2026-04-22 19:45 34.58310 -85.27048 39169 ft 545 kts 142°
2026-04-22 19:46 34.52115 -85.21549 39168 ft 544 kts 142°
2026-04-22 19:46 34.46003 -85.16134 39172 ft 544 kts 142°
2026-04-22 19:47 34.39827 -85.10674 39177 ft 544 kts 142°
2026-04-22 19:47 34.33714 -85.05280 39177 ft 544 kts 142°
2026-04-22 19:48 34.27593 -84.99887 39178 ft 543 kts 142°
2026-04-22 19:48 34.21423 -84.94463 39182 ft 543 kts 142°
2026-04-22 19:49 34.15270 -84.89062 39191 ft 543 kts 142°
2026-04-22 19:49 34.09148 -84.83698 39195 ft 539 kts 142°
2026-04-22 19:50 34.03089 -84.78399 39198 ft 538 kts 142°
2026-04-22 19:50 33.96960 -84.73050 39188 ft 537 kts 143°
2026-04-22 19:51 33.90925 -84.67793 39188 ft 537 kts 142°
2026-04-22 19:51 33.84876 -84.62530 39189 ft 536 kts 143°
2026-04-22 19:52 33.78813 -84.57267 39190 ft 536 kts 143°
2026-04-22 19:52 33.72704 -84.51973 39174 ft 537 kts 143°
2026-04-22 19:53 33.66615 -84.46704 39187 ft 535 kts 143°
2026-04-22 19:53 33.60280 -84.41929 39210 ft 531 kts 153°
2026-04-22 19:54 33.53656 -84.37968 39181 ft 524 kts 153°
2026-04-22 19:54 33.47181 -84.34104 39182 ft 517 kts 154°
2026-04-22 19:55 33.40726 -84.30257 39192 ft 511 kts 154°
2026-04-22 19:55 33.34316 -84.26443 39188 ft 506 kts 154°
2026-04-22 19:56 33.27969 -84.22673 39185 ft 501 kts 154°
2026-04-22 19:56 33.21746 -84.18984 39155 ft 497 kts 154°
2026-04-22 19:57 33.15527 -84.15301 39178 ft 493 kts 154°
2026-04-22 19:57 33.09382 -84.11668 39161 ft 489 kts 154°
2026-04-22 19:58 33.03246 -84.08048 39169 ft 486 kts 154°
2026-04-22 19:58 32.97136 -84.04446 39166 ft 484 kts 154°
2026-04-22 20:00 32.75798 -83.91914 39170 ft 489 kts 154°
2026-04-22 20:01 32.69594 -83.88284 39178 ft 494 kts 155°
2026-04-22 20:01 32.63373 -83.84649 39182 ft 498 kts 155°
2026-04-22 20:02 32.57039 -83.80953 39184 ft 502 kts 154°
2026-04-22 20:02 32.50756 -83.77292 39192 ft 505 kts 155°
2026-04-22 20:03 32.44374 -83.73583 39188 ft 508 kts 155°
2026-04-22 20:03 32.37986 -83.69873 39189 ft 511 kts 155°
2026-04-22 20:04 32.31538 -83.66135 39173 ft 513 kts 155°
2026-04-22 20:04 32.25082 -83.62398 39168 ft 515 kts 155°
2026-04-22 20:05 32.18561 -83.58629 39166 ft 517 kts 155°
2026-04-22 20:05 32.12046 -83.54868 39168 ft 519 kts 155°
2026-04-22 20:06 32.05500 -83.51100 39168 ft 520 kts 155°
2026-04-22 20:06 31.98965 -83.47341 39173 ft 521 kts 155°
2026-04-22 20:07 31.92364 -83.43552 39170 ft 522 kts 156°
2026-04-22 20:07 31.85783 -83.39778 39172 ft 523 kts 156°
2026-04-22 20:08 31.79204 -83.36011 39168 ft 524 kts 156°
2026-04-22 20:08 31.72602 -83.32238 39178 ft 525 kts 156°
2026-04-22 20:09 31.66016 -83.28482 39180 ft 524 kts 157°
2026-04-22 20:09 31.59401 -83.24748 39179 ft 525 kts 157°
2026-04-22 20:10 31.52775 -83.21034 39171 ft 526 kts 157°
2026-04-22 20:10 31.46127 -83.17313 39157 ft 526 kts 158°
2026-04-22 20:11 31.39456 -83.13589 39155 ft 527 kts 158°
2026-04-22 20:11 31.32802 -83.09875 39153 ft 527 kts 158°
2026-04-22 20:12 31.26080 -83.06127 39146 ft 528 kts 158°
2026-04-22 20:12 31.19431 -83.02434 39143 ft 529 kts 158°
2026-04-22 20:13 31.12728 -82.98715 39152 ft 529 kts 158°
2026-04-22 20:13 31.05999 -82.94981 39153 ft 530 kts 159°
2026-04-22 20:14 30.99307 -82.91282 39162 ft 530 kts 159°
2026-04-22 20:14 30.92585 -82.87563 39165 ft 531 kts 159°
2026-04-22 20:15 30.86226 -82.83035 39187 ft 535 kts 145°
2026-04-22 20:15 30.80368 -82.77720 39145 ft 527 kts 146°
2026-04-22 20:16 30.74584 -82.72495 39139 ft 519 kts 146°
2026-04-22 20:16 30.68889 -82.67364 39139 ft 513 kts 146°
2026-04-22 20:17 30.63225 -82.62266 39146 ft 507 kts 146°
2026-04-22 20:17 30.57626 -82.57236 39143 ft 503 kts 146°
2026-04-22 20:18 30.52080 -82.52258 39146 ft 500 kts 146°
2026-04-22 20:18 30.46479 -82.47243 39150 ft 497 kts 146°
2026-04-22 20:19 30.41022 -82.42360 39153 ft 494 kts 146°
2026-04-22 20:19 30.35556 -82.37482 39151 ft 491 kts 147°
2026-04-22 20:20 30.30174 -82.32678 39143 ft 487 kts 147°
2026-04-22 20:20 30.24887 -82.27966 39141 ft 472 kts 148°
2026-04-22 20:20 30.22215 -82.25592 38903 ft 465 kts 148°
2026-04-22 20:21 30.19554 -82.23839 38871 ft 439 kts 168°
2026-04-22 20:21 30.13588 -82.22407 38925 ft 431 kts 178°
2026-04-22 20:21 30.10581 -82.21806 38659 ft 439 kts 178°
2026-04-22 20:22 30.07551 -82.21210 38274 ft 451 kts 177°
2026-04-22 20:22 30.04347 -82.20578 37714 ft 467 kts 177°
2026-04-22 20:22 30.01050 -82.19923 37045 ft 482 kts 177°
2026-04-22 20:22 29.97689 -82.19258 36254 ft 489 kts 177°
2026-04-22 20:23 29.94370 -82.18598 35456 ft 484 kts 177°
2026-04-22 20:23 29.90986 -82.17926 34732 ft 476 kts 177°
2026-04-22 20:23 29.87742 -82.17276 34097 ft 468 kts 177°
2026-04-22 20:23 29.84531 -82.16634 33505 ft 459 kts 178°
2026-04-22 20:24 29.81431 -82.16020 32923 ft 452 kts 177°
2026-04-22 20:24 29.78290 -82.15398 32320 ft 445 kts 177°
2026-04-22 20:24 29.75235 -82.14790 31723 ft 440 kts 177°
2026-04-22 20:24 29.72187 -82.14182 31142 ft 436 kts 177°
2026-04-22 20:25 29.69195 -82.13589 30586 ft 431 kts 177°
2026-04-22 20:25 29.66272 -82.13007 30027 ft 428 kts 177°
2026-04-22 20:25 29.63281 -82.12412 29424 ft 427 kts 177°
2026-04-22 20:25 29.60358 -82.11834 28765 ft 427 kts 176°
2026-04-22 20:26 29.57389 -82.11247 28026 ft 428 kts 176°
2026-04-22 20:26 29.54472 -82.10667 27349 ft 427 kts 176°
2026-04-22 20:26 29.51540 -82.10087 26736 ft 424 kts 176°
2026-04-22 20:26 29.48639 -82.09511 26174 ft 419 kts 176°
2026-04-22 20:27 29.45736 -82.08934 25617 ft 415 kts 176°
2026-04-22 20:27 29.42910 -82.08378 25068 ft 411 kts 175°
2026-04-22 20:27 29.40073 -82.07816 24520 ft 407 kts 175°
2026-04-22 20:27 29.37261 -82.07262 23959 ft 402 kts 175°
2026-04-22 20:28 29.34455 -82.06708 23407 ft 398 kts 175°
2026-04-22 20:28 29.31739 -82.06165 22876 ft 396 kts 173°
2026-04-22 20:28 29.29112 -82.05012 22260 ft 403 kts 155°
2026-04-22 20:28 29.26640 -82.03422 21612 ft 403 kts 155°
2026-04-22 20:29 29.24155 -82.01848 20942 ft 400 kts 154°
2026-04-22 20:29 29.21704 -82.00300 20279 ft 396 kts 155°
2026-04-22 20:29 29.19280 -81.98772 19618 ft 391 kts 155°
2026-04-22 20:29 29.16888 -81.97269 18959 ft 387 kts 154°
2026-04-22 20:30 29.14529 -81.95785 18314 ft 378 kts 154°
2026-04-22 20:30 29.12227 -81.94338 17681 ft 369 kts 154°
2026-04-22 20:30 29.10008 -81.92947 17087 ft 360 kts 154°
2026-04-22 20:30 29.07803 -81.91563 16486 ft 351 kts 154°
2026-04-22 20:31 29.05819 -81.89881 15903 ft 354 kts 139°
2026-04-22 20:31 29.04015 -81.87914 15324 ft 356 kts 139°
2026-04-22 20:31 29.02195 -81.85954 14714 ft 358 kts 138°
2026-04-22 20:31 29.00381 -81.84001 14072 ft 345 kts 138°
2026-04-22 20:32 28.98653 -81.82145 13456 ft 331 kts 138°
2026-04-22 20:32 28.97157 -81.80182 12832 ft 321 kts 128°
2026-04-22 20:32 28.95824 -81.78173 12222 ft 312 kts 128°
2026-04-22 20:32 28.94487 -81.76188 11609 ft 320 kts 128°
2026-04-22 20:33 28.93097 -81.74121 10963 ft 323 kts 128°
2026-04-22 20:33 28.91738 -81.72101 10301 ft 317 kts 128°
2026-04-22 20:33 28.90439 -81.70169 10236 ft 292 kts 128°
2026-04-22 20:33 28.89229 -81.68372 10140 ft 278 kts 128°
2026-04-22 20:34 28.88043 -81.66613 10058 ft 278 kts 128°
2026-04-22 20:34 28.86836 -81.64829 9988 ft 284 kts 128°
2026-04-22 20:34 28.85604 -81.63014 9598 ft 292 kts 128°
2026-04-22 20:34 28.84364 -81.61186 8918 ft 290 kts 127°
2026-04-22 20:35 28.83122 -81.59341 8220 ft 287 kts 127°
2026-04-22 20:35 28.81904 -81.57532 7488 ft 282 kts 127°
2026-04-22 20:35 28.80727 -81.55798 7018 ft 267 kts 127°
2026-04-22 20:35 28.79601 -81.54132 6930 ft 257 kts 127°
2026-04-22 20:36 28.78548 -81.52453 6737 ft 253 kts 121°
2026-04-22 20:36 28.77615 -81.50754 6471 ft 247 kts 122°
2026-04-22 20:36 28.76684 -81.49106 6198 ft 245 kts 122°
2026-04-22 20:36 28.75742 -81.47433 6081 ft 247 kts 122°
2026-04-22 20:37 28.74813 -81.45785 6004 ft 247 kts 122°
2026-04-22 20:37 28.73874 -81.44108 5945 ft 246 kts 119°
2026-04-22 20:37 28.73214 -81.42275 5735 ft 251 kts 107°
2026-04-22 20:37 28.72556 -81.40396 5467 ft 258 kts 118°
2026-04-22 20:38 28.71654 -81.38576 5182 ft 263 kts 108°
2026-04-22 20:38 28.71363 -81.36514 4928 ft 265 kts 102°
2026-04-22 20:38 28.70675 -81.34557 4646 ft 269 kts 124°
2026-04-22 20:38 28.69212 -81.33225 4431 ft 260 kts 158°
2026-04-22 20:39 28.67493 -81.33000 4364 ft 244 kts 177°
2026-04-22 20:39 28.65789 -81.32952 4060 ft 244 kts 176°
2026-04-22 20:39 28.64038 -81.32915 3799 ft 241 kts 176°
2026-04-22 20:39 28.62424 -81.32897 3483 ft 220 kts 176°
2026-04-22 20:40 28.60906 -81.32880 3190 ft 209 kts 175°
2026-04-22 20:40 28.59476 -81.32864 2893 ft 194 kts 175°
2026-04-22 20:40 28.58157 -81.32850 2620 ft 182 kts 175°
2026-04-22 20:40 28.56917 -81.32836 2427 ft 165 kts 175°
2026-04-22 20:41 28.55817 -81.32826 2179 ft 149 kts 173°
2026-04-22 20:41 28.54793 -81.32817 1964 ft 139 kts 173°
2026-04-22 20:41 28.53830 -81.32803 1779 ft 139 kts 172°
2026-04-22 20:41 28.52836 -81.32783 1627 ft 146 kts 173°
2026-04-22 20:42 28.51793 -81.32770 1435 ft 145 kts 174°
2026-04-22 20:42 28.50769 -81.32762 1239 ft 145 kts 174°
2026-04-22 20:42 28.49776 -81.32754 1039 ft 135 kts 173°
2026-04-22 20:42 28.48840 -81.32743 859 ft 134 kts 173°
2026-04-22 20:43 28.47876 -81.32727 702 ft 140 kts 173°
2026-04-22 20:43 28.46892 -81.32722 517 ft 137 kts 173°
2026-04-22 20:43 28.45953 -81.32729 363 ft 130 kts 175°
2026-04-22 20:43 28.45040 -81.32709 163 ft 126 kts 172°
2026-04-22 20:44 28.44222 -81.32681 91 ft 102 kts 179°
2026-04-22 20:44 28.43800 -81.32680 88 ft 33 kts 183°
2026-04-22 20:44 28.43675 -81.32745 88 ft 10 kts 261°
2026-04-22 20:44 28.43673 -81.32758 88 ft 0 kts 265°
2026-04-22 20:45 28.43667 -81.32864 88 ft 19 kts 257°
2026-04-22 20:45 28.43566 -81.32928 89 ft 20 kts 178°
2026-04-22 20:45 28.43392 -81.32931 90 ft 26 kts 181°
2026-04-22 20:46 28.42985 -81.32928 91 ft 30 kts 178°
2026-04-22 20:46 28.42772 -81.32922 91 ft 30 kts 180°
2026-04-22 20:46 28.42557 -81.32916 91 ft 30 kts 178°
2026-04-22 20:47 28.42340 -81.32917 91 ft 31 kts 179°
2026-04-22 20:47 28.42174 -81.32925 91 ft 11 kts 195°
2026-04-22 20:47 28.42097 -81.32974 91 ft 14 kts 246°
2026-04-22 20:47 28.42097 -81.33073 91 ft 13 kts 279°
2026-04-22 20:48 28.42145 -81.33149 91 ft 6 kts 356°
2026-04-22 20:48 28.42168 -81.33147 91 ft 0 kts